When you browse on this site, cookies collect data to enhance your experience and personalize the content and advertising you see.
Visit our Privacy Policy to learn more. By continuing to use the site, you agree to this use of cookies and data.
  • Em Portugal
  • Lista de países
  • Para 7 dias
  • Temperatura da água
  • Mapa do tempo
  • Widgets de tempo
  • user-avatar
    Iniciar Sessão

    Previsão horária em Slavnoe

    Hoje, 6 Junho, Sábado

    Tempo Temperatura Precipitação Vento Pressão Humidade
    00:00 +9°C° 0 mm 2 m/s 744 mmHg 97%
    01:00 +10°C° 0 mm 1 m/s 744 mmHg 97%
    02:00 +10°C° 0 mm 1 m/s 745 mmHg 98%
    03:00 +10°C° 0 mm 1 m/s 745 mmHg 97%
    04:00 +10°C° 0 mm 2 m/s 745 mmHg 97%
    05:00 +10°C° 0 mm 2 m/s 745 mmHg 97%
    06:00 +13°C° 0 mm 2 m/s 745 mmHg 92%
    07:00 +14°C° 0 mm 2 m/s 745 mmHg 87%
    08:00 +16°C° 0 mm 3 m/s 745 mmHg 81%
    09:00 +18°C° 0 mm 3 m/s 745 mmHg 73%
    10:00 +19°C° 0 mm 3 m/s 745 mmHg 65%
    11:00 +21°C° 0 mm 4 m/s 745 mmHg 57%
    12:00 +21°C° 0 mm 4 m/s 745 mmHg 59%
    13:00 +22°C° 0 mm 4 m/s 745 mmHg 60%
    14:00 +22°C° 0 mm 4 m/s 745 mmHg 61%
    15:00 +22°C° 0.4 mm 4 m/s 745 mmHg 70%
    16:00 +21°C° 0.4 mm 3 m/s 745 mmHg 79%
    17:00 +20°C° 0.4 mm 3 m/s 744 mmHg 87%
    18:00 +19°C° 0.2 mm 3 m/s 745 mmHg 90%
    19:00 +18°C° 0.2 mm 2 m/s 745 mmHg 93%
    20:00 +17°C° 0.2 mm 2 m/s 745 mmHg 96%
    21:00 +17°C° 0 mm 2 m/s 745 mmHg 97%
    22:00 +16°C° 0 mm 2 m/s 745 mmHg 97%
    23:00 +15°C° 0 mm 1 m/s 745 mmHg 97%

    Amanhã, 7 Junho, Domingo

    Tempo Temperatura Precipitação Vento Pressão Humidade
    00:00 +15°C° 0.2 mm 1 m/s 746 mmHg 97%
    01:00 +15°C° 0.2 mm 1 m/s 746 mmHg 98%
    02:00 +15°C° 0.2 mm 1 m/s 747 mmHg 98%
    03:00 +15°C° 0 mm 1 m/s 747 mmHg 98%
    04:00 +16°C° 0 mm 1 m/s 747 mmHg 97%
    05:00 +16°C° 0 mm 1 m/s 748 mmHg 97%
    06:00 +18°C° 0 mm 1 m/s 748 mmHg 93%
    07:00 +20°C° 0 mm 1 m/s 748 mmHg 90%
    08:00 +21°C° 0 mm 1 m/s 749 mmHg 87%
    09:00 +22°C° 0 mm 1 m/s 749 mmHg 79%
    10:00 +24°C° 0 mm 1 m/s 749 mmHg 71%
    11:00 +25°C° 0 mm 1 m/s 750 mmHg 63%
    12:00 +26°C° 0 mm 1 m/s 750 mmHg 58%
    13:00 +27°C° 0 mm 1 m/s 750 mmHg 54%
    14:00 +27°C° 0 mm 1 m/s 750 mmHg 49%
    15:00 +27°C° 0 mm 1 m/s 750 mmHg 53%
    16:00 +27°C° 0 mm 1 m/s 750 mmHg 57%
    17:00 +26°C° 0 mm 1 m/s 750 mmHg 60%
    18:00 +25°C° 0 mm 1 m/s 750 mmHg 69%
    19:00 +23°C° 0 mm 1 m/s 750 mmHg 77%
    20:00 +21°C° 0 mm 1 m/s 750 mmHg 85%
    21:00 +20°C° 0 mm 1 m/s 750 mmHg 88%
    22:00 +19°C° 0 mm 1 m/s 750 mmHg 90%
    23:00 +18°C° 0 mm 1 m/s 751 mmHg 93%

    Depois de amanhã, 8 Junho, Segunda-feira

    Tempo Temperatura Precipitação Vento Pressão Humidade
    00:00 +18°C° 0 mm 1 m/s 751 mmHg 93%
    01:00 +18°C° 0 mm 1 m/s 751 mmHg 94%
    02:00 +16°C° 0 mm 1 m/s 751 mmHg 94%
    03:00 +18°C° 0 mm 1 m/s 751 mmHg 93%
    04:00 +19°C° 0 mm 1 m/s 751 mmHg 93%
    05:00 +19°C° 0 mm 1 m/s 751 mmHg 92%
    06:00 +21°C° 0 mm 1 m/s 751 mmHg 86%
    07:00 +23°C° 0 mm 1 m/s 751 mmHg 80%
    08:00 +24°C° 0 mm 1 m/s 751 mmHg 74%
    09:00 +25°C° 0 mm 1 m/s 751 mmHg 67%
    10:00 +27°C° 0 mm 1 m/s 751 mmHg 60%
    11:00 +28°C° 0 mm 2 m/s 751 mmHg 53%
    12:00 +28°C° 0 mm 1 m/s 751 mmHg 51%
    13:00 +29°C° 0 mm 1 m/s 751 mmHg 49%
    14:00 +29°C° 0 mm 1 m/s 751 mmHg 47%
    15:00 +29°C° 0 mm 2 m/s 751 mmHg 52%
    16:00 +28°C° 0 mm 2 m/s 750 mmHg 57%
    17:00 +28°C° 0 mm 2 m/s 750 mmHg 62%
    18:00 +26°C° 0 mm 2 m/s 750 mmHg 71%
    19:00 +24°C° 0 mm 2 m/s 750 mmHg 80%
    20:00 +21°C° 0 mm 2 m/s 751 mmHg 89%
    21:00 +20°C° 0 mm 2 m/s 751 mmHg 91%
    22:00 +19°C° 0 mm 2 m/s 751 mmHg 93%
    23:00 +19°C° 0 mm 2 m/s 751 mmHg 96%

    9 Junho, Terça-feira

    Tempo Temperatura Precipitação Vento Pressão Humidade
    00:00 +18°C° 0 mm 2 m/s 751 mmHg 96%
    01:00 +18°C° 0 mm 2 m/s 751 mmHg 96%
    02:00 +17°C° 0 mm 2 m/s 751 mmHg 96%
    03:00 +18°C° 0 mm 2 m/s 751 mmHg 94%
    04:00 +19°C° 0 mm 2 m/s 752 mmHg 91%
    05:00 +19°C° 0 mm 2 m/s 752 mmHg 89%
    06:00 +21°C° 0 mm 2 m/s 752 mmHg 83%
    07:00 +22°C° 0 mm 3 m/s 752 mmHg 77%
    08:00 +25°C° 0 mm 3 m/s 752 mmHg 71%
    09:00 +26°C° 0 mm 3 m/s 752 mmHg 66%
    10:00 +27°C° 0 mm 3 m/s 752 mmHg 61%
    11:00 +28°C° 0 mm 4 m/s 752 mmHg 56%
    12:00 +28°C° 0 mm 4 m/s 752 mmHg 54%
    13:00 +29°C° 0 mm 3 m/s 752 mmHg 53%
    14:00 +29°C° 0 mm 3 m/s 752 mmHg 51%
    15:00 +29°C° 0 mm 3 m/s 751 mmHg 54%
    16:00 +28°C° 0 mm 3 m/s 751 mmHg 57%
    17:00 +28°C° 0 mm 2 m/s 751 mmHg 60%
    18:00 +26°C° 0 mm 2 m/s 751 mmHg 68%
    19:00 +24°C° 0 mm 2 m/s 751 mmHg 75%
    20:00 +21°C° 0 mm 2 m/s 751 mmHg 82%
    21:00 +20°C° 0 mm 2 m/s 751 mmHg 86%
    22:00 +19°C° 0 mm 2 m/s 751 mmHg 89%
    23:00 +18°C° 0 mm 2 m/s 752 mmHg 93%

    10 Junho, Quarta-feira

    Tempo Temperatura Precipitação Vento Pressão Humidade
    00:00 +18°C° 0 mm 2 m/s 752 mmHg 94%
    01:00 +19°C° 0 mm 1 m/s 751 mmHg 94%
    02:00 +18°C° 0 mm 1 m/s 751 mmHg 95%
    03:00 +19°C° 0 mm 1 m/s 752 mmHg 93%
    04:00 +19°C° 0 mm 1 m/s 752 mmHg 91%
    05:00 +19°C° 0 mm 2 m/s 752 mmHg 89%
    06:00 +21°C° 0 mm 2 m/s 752 mmHg 82%
    07:00 +23°C° 0 mm 2 m/s 752 mmHg 76%
    08:00 +25°C° 0 mm 2 m/s 752 mmHg 69%
    09:00 +26°C° 0 mm 2 m/s 752 mmHg 65%
    10:00 +27°C° 0 mm 3 m/s 752 mmHg 61%
    11:00 +28°C° 0 mm 3 m/s 751 mmHg 57%
    12:00 +28°C° 0.1 mm 3 m/s 751 mmHg 56%
    13:00 +28°C° 0.1 mm 3 m/s 751 mmHg 56%
    14:00 +28°C° 0.1 mm 3 m/s 751 mmHg 55%
    15:00 +28°C° 0.3 mm 3 m/s 750 mmHg 59%
    16:00 +27°C° 0.3 mm 2 m/s 750 mmHg 63%
    17:00 +27°C° 0.3 mm 2 m/s 750 mmHg 67%
    18:00 +25°C° 0 mm 2 m/s 750 mmHg 74%
    19:00 +23°C° 0 mm 2 m/s 750 mmHg 80%
    20:00 +21°C° 0 mm 2 m/s 750 mmHg 87%
    21:00 +20°C° 0 mm 2 m/s 750 mmHg 90%
    22:00 +20°C° 0 mm 1 m/s 750 mmHg 92%
    23:00 +19°C° 0 mm 1 m/s 750 mmHg 94%

    11 Junho, Quinta-feira

    Tempo Temperatura Precipitação Vento Pressão Humidade
    00:00 +19°C° 0 mm 1 m/s 750 mmHg 95%
    01:00 +18°C° 0 mm 1 m/s 750 mmHg 95%
    02:00 +18°C° 0 mm 1 m/s 750 mmHg 95%
    03:00 +19°C° 0 mm 1 m/s 750 mmHg 94%
    04:00 +19°C° 0 mm 1 m/s 750 mmHg 92%
    05:00 +20°C° 0 mm 1 m/s 750 mmHg 91%
    06:00 +22°C° 0 mm 1 m/s 750 mmHg 84%
    07:00 +24°C° 0 mm 1 m/s 750 mmHg 77%
    08:00 +25°C° 0 mm 1 m/s 750 mmHg 70%
    09:00 +26°C° 0 mm 1 m/s 750 mmHg 64%
    10:00 +28°C° 0 mm 1 m/s 750 mmHg 58%
    11:00 +29°C° 0 mm 1 m/s 749 mmHg 52%
    12:00 +29°C° 0 mm 1 m/s 749 mmHg 50%
    13:00 +30°C° 0 mm 1 m/s 749 mmHg 47%
    14:00 +30°C° 0 mm 1 m/s 748 mmHg 45%
    15:00 +30°C° 0 mm 1 m/s 748 mmHg 49%
    16:00 +29°C° 0 mm 1 m/s 748 mmHg 52%
    17:00 +29°C° 0 mm 1 m/s 748 mmHg 55%
    18:00 +27°C° 0.1 mm 1 m/s 748 mmHg 65%
    19:00 +25°C° 0.1 mm 1 m/s 748 mmHg 74%
    20:00 +23°C° 0.1 mm 1 m/s 748 mmHg 83%
    21:00 +22°C° 0.1 mm 1 m/s 748 mmHg 86%
    22:00 +21°C° 0.1 mm 1 m/s 748 mmHg 88%
    23:00 +20°C° 0.1 mm 1 m/s 748 mmHg 91%
    Mostrar mais